Columbia, MO

11:41 AM CDT on August 20, 2017 (GMT -0500)
Columbia Regional

Weather History for KCOU - March, 2012

Change the Weather History Date:

Wednesday, March 14, 2012

  Actual Average Record
Temperature  
Mean Temperature 72 °F 44 °F  
Max Temperature 85 °F 55 °F 85 °F (2012)
Min Temperature 59 °F 33 °F 9 °F (1993)
Degree Days  
Heating Degree Days 0 21  
Month to date heating degree days 185 329  
Since 1 July heating degree days 3528 4275  
Cooling Degree Days 7 0  
Month to date cooling degree days 8 0  
Year to date cooling degree days 8 0  
Growing Degree Days 22 (Base 50)    
Moisture  
Dew Point 57 °F    
Average Humidity 64    
Maximum Humidity 84    
Minimum Humidity 44    
Precipitation  
Precipitation 0.00 in 0.09 in 3.88 in (1990)
Month to date precipitation 1.43 1.20  
Year to date precipitation 4.94 5.37  
Snow  
Snow 0.00 in 0.00 in 6.00 in (2011)
Month to date snowfall T 1.1  
Since 1 July snowfall 6.6 17.2  
Snow Depth 0.00 in    
Sea Level Pressure  
Sea Level Pressure 29.98 in    
Wind  
Wind Speed 13 mph (SSW)    
Max Wind Speed 26 mph    
Max Gust Speed 32 mph    
Visibility 10 miles    
Events      
T = Trace of Precipitation, MM = Missing Value Source: NWS Daily Summary

Daily Weather History Graph

Daily Weather History Graph

Search for Another Location

Airport or City:

Trip Planner

Search our weather history database for the weather conditions in past years. The results will help you decide how hot, cold, wet, or windy it might be!

Date:

Astronomy

Mar. 14, 2012 Rise Set
Actual Time 7:20 AM CDT 7:15 PM CDT
Civil Twilight 6:54 AM CDT 7:42 PM CDT
Nautical Twilight 6:23 AM CDT 8:12 PM CDT
Astronomical Twilight 5:52 AM CDT 8:44 PM CDT
Moon 1:47 AM CDT (3/14) 11:36 AM CDT (3/14)
Length of Visible Light 12h 47m
Length of Day
11h 54m
Waning Gibbous, 54% of the Moon is Illuminated
Mar 14
Waning Gibbous
Mar 14
Last Quarter
Mar 22
New
Mar 30
First Quarter
Apr 6
Full

Hourly Weather History & Observations

Time (CDT) Temp. Heat Index Dew Point Humidity Pressure Visibility Wind Dir Wind Speed Gust Speed Precip Events Conditions
12:54 AM 64.0 °F - 48.0 °F 56% 29.98 in 10.0 mi South 10.4 mph - N/A   Clear
1:54 AM 64.9 °F - 50.0 °F 58% 29.99 in 10.0 mi South 11.5 mph - N/A   Clear
2:54 AM 62.1 °F - 51.1 °F 67% 29.99 in 10.0 mi South 8.1 mph - N/A   Clear
3:54 AM 62.1 °F - 51.1 °F 67% 29.98 in 10.0 mi SSE 6.9 mph - N/A   Clear
4:54 AM 59.0 °F - 52.0 °F 78% 29.98 in 10.0 mi SSE 9.2 mph - N/A   Clear
5:54 AM 59.0 °F - 53.1 °F 81% 29.99 in 10.0 mi SSE 9.2 mph - N/A   Clear
6:54 AM 61.0 °F - 55.0 °F 81% 29.99 in 10.0 mi South 11.5 mph - N/A   Scattered Clouds
7:54 AM 61.0 °F - 55.0 °F 81% 30.00 in 10.0 mi SSE 10.4 mph - N/A   Clear
8:54 AM 64.0 °F - 57.0 °F 78% 30.01 in 10.0 mi South 13.8 mph - N/A   Scattered Clouds
9:54 AM 70.0 °F - 59.0 °F 68% 30.01 in 10.0 mi SSW 13.8 mph - N/A   Partly Cloudy
10:54 AM 73.9 °F - 61.0 °F 64% 30.00 in 10.0 mi SSW 21.9 mph 25.3 mph N/A   Mostly Cloudy
11:45 AM 75.2 °F - 60.8 °F 61% 30.01 in 10.0 mi SSW 13.8 mph 23.0 mph N/A   Mostly Cloudy
11:54 AM 75.0 °F - 61.0 °F 62% 29.99 in 10.0 mi SSW 18.4 mph 25.3 mph N/A   Mostly Cloudy
12:54 PM 78.1 °F - 61.0 °F 56% 29.97 in 10.0 mi SW 18.4 mph - N/A   Scattered Clouds
1:54 PM 81.0 °F 81.7 °F 61.0 °F 50% 29.95 in 10.0 mi SSW 18.4 mph 25.3 mph N/A   Mostly Cloudy
2:54 PM 81.0 °F 81.7 °F 61.0 °F 50% 29.93 in 10.0 mi SSW 20.7 mph 27.6 mph N/A   Mostly Cloudy
3:54 PM 84.9 °F 85.0 °F 61.0 °F 44% 29.91 in 10.0 mi SSW 16.1 mph 28.8 mph N/A   Scattered Clouds
4:54 PM 81.0 °F 81.3 °F 59.0 °F 47% 29.92 in 10.0 mi SW 20.7 mph - N/A   Partly Cloudy
5:54 PM 81.0 °F 81.3 °F 59.0 °F 47% 29.92 in 10.0 mi SSW 16.1 mph 24.2 mph N/A   Scattered Clouds
6:54 PM 77.0 °F - 59.0 °F 54% 29.94 in 10.0 mi SSW 10.4 mph - N/A   Clear
7:54 PM 72.0 °F - 59.0 °F 64% 29.96 in 10.0 mi SSW 9.2 mph - N/A   Clear
8:54 PM 73.0 °F - 59.0 °F 61% 29.98 in 10.0 mi WSW 12.7 mph - N/A   Scattered Clouds
9:54 PM 71.1 °F - 59.0 °F 66% 30.00 in 10.0 mi WSW 5.8 mph - N/A   Mostly Cloudy
10:54 PM 68.0 °F - 59.0 °F 73% 30.02 in 10.0 mi WSW 6.9 mph - N/A   Clear
11:54 PM 70.0 °F - 60.1 °F 71% 30.02 in 10.0 mi WSW 9.2 mph - N/A   Overcast